Orbital Elements at Epoch 2459000.5 (2020-May-31.0) TDB
Reference: JPL 27 (heliocentric ecliptic J2000)
Element | Value | Uncertainty (1-sigma) | Units |
e | .1498798270342827 | 5.6451e-08 | |
a | 3.182827242447475 | 2.1418e-08 | au |
q | 2.705785645869444 | 1.7848e-07 | au |
i | 4.804458371896583 | 5.1078e-06 | deg |
node | 326.5519900906532 | 6.0439e-05 | deg |
peri | 29.76562755411753 | 6.2238e-05 | deg |
M | 54.26667870687284 | 1.3912e-05 | deg |
tp | 2458687.856957641346 (2019-Jul-23.35695764) | 8.0491e-05 | TDB |
period | 2074.044292577297 5.68 | 2.0935e-05 5.732e-08 | d yr |
n | .1735739209082408 | 1.752e-09 | deg/d |
Q | 3.659868839025505 | 2.4628e-08 | au |
|
| | Orbit Determination Parameters
Additional Information
|